www.pogodaiklimat.ru

Погода и климат >> Архив погоды >> Россия >> Крым >> Евпатория


ПОГОДА в Евпатории

АРХИВ ПОГОДЫ в Евпатории

Время (UTC), дата Ветер
(напр.,м/с)
 
Видим.   Явления Облачность Т
(С)
Тd
(С)
f
(%)
Тe
(С)
Тes
(С)
Комфортность P
(гПа)
Po
(гПа)
Тmin
(С)
Tmax
(С)
R
(мм)
R24
(мм)
S
(см)
18 20.06 З 3
{10}
20 км 2 балла +24.8 +15.1 55 +28 +28 жарко 1010.5 1009.3 +31.6
21 20.06 ЮЗ 3 10 км ясно +20.3 +17.7 85 +24 +24 комфорт 1011.9 1010.7
00 21.06 ЮЗ 2 10 км ясно +19.0 +18.0 94 +21 +21 комфорт 1011.9 1010.7
03 21.06 Ю 2 20 км 1 балл +19.8 +19.5 98 +24 +24 комфорт 1010.5 1009.3 +18.6
06 21.06 Ю 3 20 км ясно +22.5 +19.8 85 +29 +36 очень
душно
1010.5 1009.3 +18.6
09 21.06 ЮЗ 4 20 км 4 балла +27.3 +20.1 65 +34 +41 очень
душно
1010.4 1009.3
12 21.06 З 7
{11}
20 км 2 балла +30.5 +12.4 33 +31 +35 жарко 1010.4 1009.3
15 21.06 З 4
{11}
20 км 1 балл +29.0 +14.8 42 +31 +34 жарко 1009.1 1008.0
18 21.06 З 3
{10}
20 км 7 баллов +24.0 +14.7 56 +27 +27 жарко 1010.5 1009.3 +32.3
21 21.06 ЮЗ 1 10 км ясно +21.2 +18.9 87 +26 +26 душно 1011.9 1010.7
00 22.06 ЮЗ 1 10 км ясно +20.8 +20.0 95 +27 +27 душно 1011.9 1010.7
03 22.06 СВ 1 10 км 9 баллов +21.0 +18.4 85 +26 +27 душно 1011.9 1010.7 +20.4
06 22.06 С 2 20 км 10 баллов +23.4 +18.1 72 +29 +29 душно 1013.2 1012.0 +20.4
09 22.06 ЮЗ 2 20 км 10 баллов +26.4 +18.0 60 +31 +31 душно 1013.1 1012.0
12 22.06 З 4 20 км 2 балла +29.8 +11.3 32 +30 +38 жарко 1013.1 1012.0
15 22.06 З 5
{10}
20 км 7 баллов +28.0 +8.3 29 +28 +28 жарко 1013.1 1012.0
18 22.06 СЗ 3 50 км 4 балла +24.7 +8.6 36 +25 +25 комфорт 1014.5 1013.3 +30.4
21 22.06 ЮЗ 2 10 км 9 баллов +20.9 +13.8 64 +24 +24 комфорт 1015.9 1014.7
00 23.06 ЮЗ 1 10 км ясно +19.2 +15.9 81 +22 +22 комфорт 1015.9 1014.7
03 23.06 ЮЗ 2 50 км 10 баллов +20.8 +17.6 82 +25 +25 комфорт 1014.5 1013.3 +18.3
06 23.06 ЮЗ 3 50 км 10 баллов +21.8 +19.9 89 +27 +27 душно 1015.9 1014.7 +18.3
09 23.06 ЮЗ 2 20 км 10 баллов +25.0 +21.1 79 +32 +32 очень
душно
1015.9 1014.7
12 23.06 ЮЗ 3 20 км 4 балла +25.4 +20.2 73 +31 +39 очень
душно
1014.4 1013.3
15 23.06 ЮЗ 3 20 км 9 баллов +23.6 +21.1 86 +30 +30 очень
душно
1011.9 1010.7
18 23.06 ЮЗ 2 20 км 10 баллов +21.5 +20.7 95 +27 +27 душно 1011.9 1010.7 +25.9
21 23.06 ЮЗ 4
{10}
10 км зарница 2 балла +21.4 +20.6 95 +27 +27 душно 1010.5 1009.3
00 24.06 Ю 5
{11}
10 км гроза, ливневой дождь 10 баллов +18.7 +17.9 95 +20 +20 тепло 1009.2 1008.0
03 24.06 Ю 5
{11}
20 км 10 баллов +19.6 +18.3 92 +22 +22 комфорт 1009.2 1008.0 +18.3 15
06 24.06 З 4 20 км 2 балла +22.6 +19.6 83 +29 +34 очень
душно
1010.5 1009.3 +18.3 15
09 24.06 З 4 20 км 6 баллов +23.9 +18.3 71 +28 +33 душно 1010.5 1009.3
12 24.06 СЗ 5
{10}
20 км 4 балла +25.7 +16.8 58 +29 +34 душно 1010.4 1009.3
15 24.06 СЗ 4
{10}
20 км 2 балла +25.2 +17.6 63 +29 +31 душно 1010.4 1009.3
18 24.06 СЗ 3
{10}
20 км 2 балла +22.9 +17.1 70 +28 +28 душно 1013.2 1012.0 +27.1
21 24.06 З 3 10 км ясно +20.6 +19.4 93 +25 +25 комфорт 1014.5 1013.3
00 25.06 С 3 10 км ясно +20.4 +17.2 82 +24 +24 комфорт 1014.5 1013.3
03 25.06 З 2 20 км ясно +19.9 +17.7 87 +23 +24 комфорт 1015.9 1014.7 +19.7
06 25.06 Ю 2 20 км 1 балл +23.2 +18.5 75 +29 +37 душно 1015.9 1014.7 +19.7
09 25.06 ЮЗ 3 20 км 4 балла +26.0 +20.1 70 +32 +41 очень
душно
1017.2 1016.0
12 25.06 З 6
{10}
20 км 1 балл +27.9 +16.8 51 +32 +37 душно 1017.1 1016.0
15 25.06 З 4
{10}
20 км 1 балл +26.6 +16.8 55 +30 +33 душно 1015.8 1014.7
18 25.06 З 2 20 км ясно +23.4 +16.7 66 +28 +28 душно 1015.9 1014.7 +28.7
21 25.06 З 3 10 км ясно +20.8 +17.8 83 +25 +25 комфорт 1017.2 1016.0
00 26.06 штиль 0 10 км ясно +18.6 +17.4 93 +20 +20 тепло 1015.9 1014.7
03 26.06 С 1 20 км ясно +18.7 +17.2 91 +21 +22 комфорт 1015.9 1014.7 +17.8
06 26.06 ЮВ 2 20 км ясно +22.6 +18.6 78 +28 +37 душно 1015.9 1014.7 +17.8
09 26.06 ЮЗ 3 20 км 2 балла +26.9 +18.2 59 +32 +44 очень
душно
1015.8 1014.7
12 26.06 ЮЗ 5 20 км 2 балла +27.7 +18.1 56 +32 +39 очень
душно
1015.8 1014.7
15 26.06 ЮЗ 4 20 км ясно +27.9 +16.2 49 +31 +34 душно 1014.4 1013.3
18 26.06 З 2 20 км ясно +24.7 +16.4 60 +28 +28 душно 1013.2 1012.0 +28.6
21 26.06 СЗ 2 10 км ясно +22.1 +18.1 78 +27 +27 душно 1014.5 1013.3
00 27.06 С 1 10 км ясно +20.7 +18.1 85 +26 +26 душно 1014.5 1013.3
03 27.06 ЮВ 3 50 км ясно +21.3 +17.5 79 +25 +26 комфорт 1013.2 1012.0 +19.7
06 27.06 ЮВ 2 20 км 1 балл +23.8 +17.1 66 +28 +36 душно 1013.2 1012.0 +19.7
09 27.06 ЮЗ 3 20 км 2 балла +28.4 +19.0 57 +34 +46 очень
душно
1013.1 1012.0
12 27.06 ЮЗ 5 20 км 2 балла +27.8 +19.6 61 +34 +40 очень
душно
1013.1 1012.0
15 27.06 СЗ 5
{10}
20 км 1 балл +30.0 +14.9 40 +32 +34 жарко 1011.8 1010.7

 

Местоположение метеостанции Евпатория (Крым, Россия): широта 45.18 долгота 33.37 высота над уровнем моря 10 м.

В архиве по умолчанию представлена погода в Евпатории за последнюю неделю. Архивные данные за месяц целиком и за предыдущие месяцы, начиная с января 2011 года, Вы можете получить, выбрав интересующий диапазон дат из раскрывающегося списка и нажав кнопку "Ввод!".

Внимание! Время в таблицах - всемирное. Для получения местного времени необходимо прибавить поправку, которая в Евпатории равна 3 ч.

Смотрите также архив погоды в соседних городах и на ближайших метеорологических станциях:

Погода в Симферополе (Крым, Россия) (50 км)
Погода в Севастополе (город Севастополь, Россия) (64 км)
Погода в Черноморском (Крым, Россия) (65 км)
Погода в Херсонесском Маяке (город Севастополь, Россия) (67 км)
Погода в Клепинино (Крым, Россия) (74 км)
Погода в Ай-Петри (Крым, Россия) (97 км)
Погода в Хорлах (Херсонская область, Украина) (97 км)
Погода в Белогорске (Крым, Россия) (98 км)
Погода в Алуште (Крым, Россия) (99 км)
Погода в Ялте (Крым, Россия) (100 км)

Пояснения к столбцам:

Ветер - указаны скорость ветра в м/с - средняя за 10 мин, порывы в срок и между сроками (в фигурных скобках) и направление, откуда дует ветер: С - северный, СВ - северо-восточный, В - восточный, ЮВ - юго-восточный, Ю - южный, ЮЗ - юго-западный, З - западный, СЗ - северо-западный.
Видимость - горизонтальная дальность видимости в метрах или километрах. При видимости от 1 до 10 км при отсутствии осадков обычно наблюдается дымка, при ухудшении видимости до 1 км и менее - туман. В сухую погоду видимость может ухудшаться дымом, пылью или мглою.
Явления - указаны атмосферные явления, наблюдавшиеся в срок или в последний час перед сроком; фигурными скобками обозначены явления, наблюдавшиеся между сроками (за 1-3 часа до срока); квадратными скобками обозначены град или гололедные отложения с указанием их диаметра в мм.
Облачность - указаны через наклонную черту общая и нижняя облачность в баллах и высота нижней границы облаков в метрах; квадратными скобками обозначены формы облаков: Ci - перистые, Cs - перисто-слоистые, Cc - перисто-кучевые, Ac - высококучевые, As - высокослоистые, Sc - слоисто-кучевые, Ns - слоисто-дождевые, Cu - кучевые, Cb - кучево-дождевые. Подробнее классификацию облаков см. в Атласе облаков (PDF).
T - Температура воздуха - температура, измеренная на высоте 2 м над землей.
Td - Температура точки росы - температура, при понижении до которой содержащийся в воздухе водяной пар достигнет насыщения.
f - Относительная влажность воздуха - влажноcть воздуха, измеренная на высоте 2 м над землей.
Te - Эффективная температура - температура, которую ощущает одетый по сезону человек в тени. Характеристика душности погоды. При расчете учитывается влияние влажности воздуха и скорости ветра на теплоощущения человека.
Tes - Эффективная температура на солнце - температура, которую ощущает человек, с поправкой на солнечный нагрев. Характеристика знойности погоды. Зависит от высоты солнца над горизонтом, облачности и скорости ветра. Ночью, в пасмурную погоду, а также при ветре 12 м/с и более поправка равна нулю.
P - Атмосферное давление - приведенное к уровню моря атмосферное давление.
Po - Атмосферное давление - измеренное на уровне метеостанции атмосферное давление.
Tmin - Минимальная температура - минимум температуры воздуха на высоте 2 м над землей.
Tmax - Максимальная температура - максимум температуры воздуха на высоте 2 м над землей.
R - Количество осадков - Количество выпавших осадков за период времени, мм. При наведении курсора мыши на число - период времени, за который выпало указанное количество осадков.
R24 - Количество осадков - Количество выпавших осадков за 24 часа, мм.
S - Снежный покров - Высота снежного покрова, см. При наведении курсора мыши на число - состояние снежного покрова и степень покрытия местности в баллах.